This demonstration page uses our WeatherBlox Daily Observations layout. Learn more.

Left ArrowRight Arrow

Hourly Observations for December 28, 2020

Temp ( °F °C ) Dew Point ( °F °C ) Humidity (%) Winds ( mph kmh ) Pressure ( in mb ) Visibility ( mi km ) Precip ( " mm )
12:15 am 00:15 Cloudy 48 9 46 8 94 94 SW 22 35 29.86 1011 10 16.0934 N/A
12:35 am 00:35 Cloudy 48 9 46 8 94 94 WSW 21 33 29.87 1012 10 16.0934 N/A
12:55 am 00:55 Cloudy 46 8 46 8 100 100 WSW 18 30 29.89 1012 10 16.0934 N/A
1:15 am 01:15 Cloudy 43 6 41 5 93 93 W 28 44 29.91 1013 10 16.0934 N/A
1:35 am 01:35 Partly Cloudy 41 5 39 4 93 93 W 22 35 29.94 1014 10 16.0934 N/A
1:55 am 01:55 Clear 39 4 37 3 93 93 W 23 37 29.95 1014 10 16.0934 N/A
2:15 am 02:15 Clear 37 3 37 3 100 100 W 17 28 29.97 1015 10 16.0934 N/A
2:35 am 02:35 Partly Cloudy 36 2 36 2 100 100 WNW 18 30 30 1016 10 16.0934 N/A
2:55 am 02:55 Cloudy 34 1 34 1 100 100 WNW 17 28 30.02 1017 10 16.0934 N/A
3:15 am 03:15 Cloudy 34 1 34 1 100 100 WNW 17 28 30.04 1017 10 16.0934 N/A
3:35 am 03:35 Cloudy 32 0 32 0 100 100 W 14 22 30.07 1018 10 16.0934 N/A
3:55 am 03:55 Cloudy 32 0 32 0 100 100 W 12 19 30.08 1018 7 11.26538 N/A
4:15 am 04:15 Cloudy 32 0 32 0 100 100 W 16 26 30.09 1019 10 16.0934 N/A
4:35 am 04:35 Cloudy 32 0 32 0 100 100 W 10 17 30.11 1019 10 16.0934 N/A
4:55 am 04:55 Cloudy 32 0 32 0 100 100 WNW 16 26 30.12 1020 10 16.0934 N/A
5:15 am 05:15 Cloudy 30 -1 30 -1 100 100 WNW 13 20 30.13 1020 10 16.0934 N/A
5:35 am 05:35 Cloudy 30 -1 30 -1 100 100 WNW 8 13 30.14 1021 10 16.0934 N/A
5:55 am 05:55 Cloudy 30 -1 30 -1 100 100 WNW 8 13 30.15 1021 10 16.0934 N/A
6:15 am 06:15 Cloudy 30 -1 30 -1 100 100 WNW 7 11 30.16 1021 10 16.0934 N/A
6:35 am 06:35 Cloudy 30 -1 30 -1 100 100 WNW 5 7 30.17 1022 10 16.0934 N/A
6:55 am 06:55 Cloudy 30 -1 30 -1 100 100 W 13 20 30.18 1022 10 16.0934 N/A
7:15 am 07:15 Cloudy 30 -1 30 -1 100 100 W 13 20 30.2 1023 10 16.0934 N/A
7:35 am 07:35 Cloudy 30 -1 30 -1 100 100 W 13 20 30.21 1023 10 16.0934 N/A
7:55 am 07:55 Cloudy 30 -1 30 -1 100 100 WNW 9 15 30.22 1023 10 16.0934 N/A
8:15 am 08:15 Cloudy 30 -1 30 -1 100 100 W 10 17 30.24 1024 10 16.0934 N/A
8:35 am 08:35 Cloudy 30 -1 30 -1 100 100 W 12 19 30.25 1024 10 16.0934 N/A
8:55 am 08:55 Cloudy 30 -1 30 -1 100 100 W 13 20 30.26 1025 10 16.0934 N/A
9:15 am 09:15 Cloudy 30 -1 30 -1 100 100 W 10 17 30.26 1025 10 16.0934 N/A
9:35 am 09:35 Cloudy 30 -1 30 -1 100 100 WNW 8 13 30.28 1025 10 16.0934 N/A
9:55 am 09:55 Cloudy 30 -1 30 -1 100 100 W 8 13 30.29 1026 10 16.0934 N/A
10:15 am 10:15 Cloudy 30 -1 30 -1 100 100 W 8 13 30.3 1026 10 16.0934 N/A
10:35 am 10:35 Cloudy 30 -1 30 -1 100 100 W 10 17 30.31 1026 10 16.0934 N/A
10:55 am 10:55 Cloudy 30 -1 30 -1 100 100 W 10 17 30.32 1027 10 16.0934 N/A
11:15 am 11:15 Cloudy 30 -1 30 -1 100 100 W 10 17 30.32 1027 10 16.0934 N/A
11:35 am 11:35 Cloudy 30 -1 30 -1 100 100 W 14 22 30.32 1027 10 16.0934 N/A
11:55 am 11:55 Cloudy 30 -1 30 -1 100 100 WNW 10 17 30.32 1027 10 16.0934 N/A
12:15 pm 12:15 Cloudy 30 -1 30 -1 100 100 W 14 22 30.32 1027 10 16.0934 N/A
12:35 pm 12:35 Cloudy 30 -1 30 -1 100 100 W 13 20 30.33 1027 10 16.0934 N/A
12:55 pm 12:55 Cloudy 30 -1 28 -2 93 93 W 15 24 30.33 1027 10 16.0934 N/A
1:15 pm 13:15 Cloudy 30 -1 28 -2 93 93 WNW 14 22 30.34 1027 10 16.0934 N/A
1:35 pm 13:35 Cloudy 28 -2 28 -2 100 100 WNW 16 26 30.34 1028 10 16.0934 N/A
1:55 pm 13:55 Cloudy 28 -2 28 -2 100 100 W 10 17 30.34 1028 10 16.0934 N/A
2:15 pm 14:15 Cloudy 28 -2 28 -2 100 100 WNW 12 19 30.35 1028 10 16.0934 N/A
2:35 pm 14:35 Cloudy 28 -2 28 -2 100 100 WNW 14 22 30.35 1028 10 16.0934 N/A
2:55 pm 14:55 Cloudy 28 -2 28 -2 100 100 WNW 14 22 30.36 1028 10 16.0934 N/A
3:15 pm 15:15 Cloudy 28 -2 28 -2 100 100 WNW 12 19 30.37 1029 10 16.0934 N/A
3:35 pm 15:35 Cloudy 28 -2 28 -2 100 100 WNW 12 19 30.38 1029 10 16.0934 N/A
3:55 pm 15:55 Cloudy 28 -2 28 -2 100 100 W 12 19 30.39 1029 10 16.0934 N/A
4:15 pm 16:15 Cloudy 27 -3 27 -3 100 100 W 14 22 30.42 1030 10 16.0934 N/A
4:35 pm 16:35 Cloudy 27 -3 27 -3 100 100 W 13 20 30.43 1030 10 16.0934 N/A
4:55 pm 16:55 Cloudy 27 -3 27 -3 100 100 WNW 13 20 30.44 1031 10 16.0934 N/A
5:15 pm 17:15 Cloudy 27 -3 27 -3 100 100 W 12 19 30.44 1031 10 16.0934 N/A
5:35 pm 17:35 Cloudy 27 -3 27 -3 100 100 W 14 22 30.45 1031 10 16.0934 N/A
5:55 pm 17:55 Cloudy 27 -3 27 -3 100 100 WNW 14 22 30.46 1031 10 16.0934 N/A
6:15 pm 18:15 Cloudy 27 -3 27 -3 100 100 WNW 12 19 30.47 1032 10 16.0934 N/A
6:35 pm 18:35 Cloudy 27 -3 25 -4 93 93 WNW 14 22 30.47 1032 10 16.0934 N/A
6:55 pm 18:55 Cloudy 27 -3 27 -3 100 100 WNW 8 13 30.48 1032 10 16.0934 N/A
7:15 pm 19:15 Cloudy 27 -3 27 -3 100 100 WNW 6 9 30.48 1032 10 16.0934 N/A
7:35 pm 19:35 Cloudy 27 -3 27 -3 100 100 WNW 6 9 30.48 1032 10 16.0934 N/A
7:55 pm 19:55 Cloudy 28 -2 25 -4 86 86 WNW 8 13 30.48 1032 10 16.0934 N/A
8:15 pm 20:15 Cloudy 28 -2 25 -4 86 86 W 10 17 30.48 1032 10 16.0934 N/A
8:35 pm 20:35 Cloudy 28 -2 25 -4 86 86 WNW 6 9 30.49 1033 10 16.0934 N/A
8:55 pm 20:55 Cloudy 28 -2 25 -4 86 86 WNW 3 6 30.48 1032 10 16.0934 N/A
9:15 pm 21:15 Cloudy 28 -2 25 -4 86 86 NW 13 20 30.49 1033 10 16.0934 N/A
9:35 pm 21:35 Cloudy 28 -2 25 -4 86 86 WNW 8 13 30.49 1033 10 16.0934 N/A
9:55 pm 21:55 Cloudy 28 -2 25 -4 86 86 W 7 11 30.5 1033 10 16.0934 N/A
10:15 pm 22:15 Cloudy 28 -2 23 -5 80 80 NW 8 13 30.5 1033 10 16.0934 N/A
10:35 pm 22:35 Cloudy 28 -2 25 -4 86 86 WNW 7 11 30.51 1033 10 16.0934 N/A
10:55 pm 22:55 Cloudy 28 -2 25 -4 86 86 WNW 8 13 30.51 1033 10 16.0934 N/A
11:15 pm 23:15 Cloudy 28 -2 25 -4 86 86 WNW 8 13 30.51 1033 10 16.0934 N/A
11:35 pm 23:35 Cloudy 27 -3 25 -4 93 93 W 6 9 30.52 1033 10 16.0934 N/A
11:55 pm 23:55 Partly Cloudy 23 -5 23 -5 100 100 W 6 9 30.53 1034 10 16.0934 N/A

Powered by AerisWeather